Dewpoint
75 73 70 67 57 54 47 48 49 50 50 55 54 50 53 58 54 55 68 67 70 70 71 73 76 76 75 75 75 74 74 73 73 73 73 71 72 72 72 72 71 71 71 71 71 72 72 71 71
72 71 71 67 53 44 48 49 47 51 53 55 54 57 57 60 65 66 65 69 69 70 71 71 76 76 75 75 75 75 74 73 73 73 73 73 72 72 72 71 71 71 71 71 71 71 71 71 72
70 70 68 62 51 44 46 49 48 53 54 53 53 59 59 62 66 64 67 69 70 70 71 72 76 76 75 74 75 75 75 74 73 73 73 73 73 74 74 73 72 71 71 72 72 72 72 72 71
65 70 69 58 46 47 47 50 50 52 53 54 55 56 63 66 64 64 67 68 69 71 70 74 76 75 75 74 73 74 74 74 74 74 74 74 73 73 73 72 72 72 72 71 72 72 72 73 72
70 68 60 52 46 45 49 52 51 52 52 53 54 58 61 67 68 67 67 68 69 70 69 72 76 76 75 74 73 74 74 73 73 74 74 73 73 72 73 73 73 73 73 72 72 73 73 73 72
62 63 52 48 46 48 52 53 53 52 54 56 55 57 62 69 67 66 67 67 67 68 69 70 75 75 75 74 73 73 73 74 74 74 73 73 73 74 73 73 73 73 73 73 73 73 73 73 73
60 60 54 53 45 48 51 56 52 52 53 54 56 56 64 68 68 67 68 68 67 68 69 70 71 73 74 74 74 74 73 74 74 74 73 73 73 73 73 73 73 73 73 73 73 73 73 73 73
63 59 52 48 45 44 54 54 54 51 54 57 59 56 59 67 69 68 67 67 68 67 68 70 70 70 70 69 74 74 74 74 74 74 73 73 74 73 73 74 75 74 74 74 74 74 73 73 73
62 53 51 52 54 52 54 52 54 56 55 56 57 59 62 68 69 67 66 66 67 68 68 69 70 73 72 71 71 75 74 74 74 73 73 74 71 69 70 74 74 74 73 73 73 73 74 75 74
58 53 52 54 56 56 53 51 53 54 54 56 61 65 67 68 67 66 64 63 64 66 68 69 69 70 71 70 72 72 71 71 71 72 73 72 70 71 71 73 74 73 73 73 73 74 74 73 74
58 53 56 57 57 58 49 51 55 54 53 54 59 64 66 66 66 65 63 62 63 65 68 70 70 71 69 70 71 71 71 71 72 75 75 72 71 72 71 70 70 71 72 69 70 72 73 72 74
55 58 57 56 58 57 48 53 54 53 53 55 62 64 64 64 64 63 63 63 63 65 67 68 70 71 71 71 71 71 71 71 71 72 74 73 71 72 72 71 71 72 71 72 73 72 75 73 73
57 55 56 58 58 50 51 52 53 54 58 61 63 63 62 61 62 62 61 62 63 64 66 68 71 73 72 73 72 72 71 71 71 71 73 73 72 72 71 71 71 71 72 71 72 72 72 72 72
59 58 57 58 55 52 51 53 53 55 59 61 62 62 62 62 61 61 63 62 64 65 65 67 70 72 72 73 73 71 70 71 71 71 71 74 73 72 70 71 71 71 72 72 72 73 73 71 71
58 54 54 54 55 52 51 50 52 55 58 59 60 61 62 63 64 64 64 64 64 65 66 67 70 70 72 73 72 71 70 68 70 70 72 74 73 73 72 70 70 71 72 73 73 74 73 73 72
56 56 53 53 54 54 51 51 54 55 56 57 58 59 61 62 63 64 65 66 66 67 68 69 68 69 70 71 71 70 69 69 69 69 71 73 73 73 72 69 70 71 72 72 72 72 75 71 72
54 51 51 51 53 53 50 50 54 55 54 55 56 57 59 60 63 64 64 65 65 67 68 69 70 69 69 71 70 69 70 69 69 70 71 73 72 72 72 70 70 72 71 71 71 72 73 72 74
50 48 50 49 52 52 50 49 52 54 54 54 54 55 56 56 57 60 62 63 64 66 68 69 69 70 71 69 69 68 67 67 68 69 70 72 72 73 73 71 72 72 70 69 70 72 73 72 72
52 52 52 53 53 52 51 51 51 54 53 54 54 55 55 56 56 57 59 59 60 63 67 69 69 73 70 68 67 67 67 67 68 69 71 72 72 72 73 72 71 72 71 71 72 71 71 69 72
53 51 50 51 51 53 51 51 52 53 53 54 54 54 54 54 56 57 58 59 59 60 64 68 69 71 71 69 69 68 69 68 68 69 71 71 72 72 72 73 71 72 71 73 73 72 68 68 69
50 50 50 47 52 53 51 49 51 53 54 54 54 54 54 54 54 56 58 59 59 60 62 66 70 71 72 72 69 70 70 70 69 69 69 70 72 72 73 73 73 74 72 69 72 72 72 67 68
48 51 50 49 48 45 47 38 47 50 51 54 54 55 54 54 55 56 57 58 58 59 61 64 68 71 70 72 71 72 68 67 68 69 69 70 72 72 73 73 74 74 71 73 71 71 71 72 67
48 47 49 49 47 48 47 43 42 44 47 50 51 53 54 56 56 55 55 56 57 58 60 62 67 69 71 72 72 69 71 68 68 68 72 73 73 72 72 73 74 73 71 73 73 72 72 70 69
45 43 44 42 42 41 42 44 38 41 46 47 49 52 54 56 57 57 58 58 58 59 60 61 67 71 70 71 71 73 72 72 69 70 68 69 70 71 72 72 74 74 73 73 73 73 73 73 71
46 41 38 37 37 37 41 43 41 45 41 43 47 50 52 54 56 57 58 58 58 58 60 61 67 70 70 69 71 72 73 73 73 72 69 70 69 69 74 74 75 74 74 73 72 73 73 74 73
46 40 36 34 32 35 42 40 38 39 42 44 44 47 49 47 49 55 55 56 57 58 60 62 66 70 70 69 72 72 73 69 70 71 70 69 69 71 74 72 73 73 73 73 72 71 72 73 74
38 39 36 34 36 36 38 41 40 41 42 46 47 49 51 52 53 54 56 58 60 61 61 62 64 67 68 69 71 73 73 73 71 73 74 71 75 73 71 68 70 69 71 72 73 72 72 73 72
30 31 25 35 37 33 33 37 36 42 44 47 50 52 54 56 59 63 63 66 68 69 70 71 72 73 73 72 71 71 72 73 73 73 74 74 73 72 70 71 71 70 70 71 72 74 72 73 73
25 24 25 32 33 32 30 32 39 44 45 47 51 53 57 59 62 65 66 68 70 71 70 70 72 72 73 75 75 73 73 73 73 72 72 72 71 71 71 70 69 69 70 71 73 74 73 73 72
33 24 23 24 31 33 33 33 44 46 49 50 52 57 59 61 63 65 66 66 66 66 67 67 68 68 69 72 73 72 71 70 68 68 68 68 68 69 68 68 68 67 68 69 71 72 72 70 71
Lifted_Index
-6 -5 -4 -4 -3 -2 -1 -1 -0 -1 -1 -0 0 0 -0 -1 -1 -0 -0 -0 -1 -2 -2 -3 -3 -3 -3 -3 -3 -3 -3 -2 -2 -2 -2 -2 -2 -3 -3 -3 -3 -3 -3 -3 -4 -4 -4 -4 -4
-5 -5 -4 -4 -2 -1 -1 -1 -1 -1 -1 -0 -0 -0 -1 -1 -1 -0 0 -0 -1 -2 -2 -3 -3 -3 -3 -3 -3 -3 -3 -2 -2 -2 -2 -2 -3 -3 -4 -4 -3 -3 -3 -3 -3 -4 -4 -4 -4
-4 -4 -4 -3 -2 -1 -1 -1 -1 -1 -1 -0 -0 -1 -1 -1 -1 0 0 -0 -1 -2 -2 -3 -3 -3 -3 -3 -3 -3 -3 -2 -2 -2 -3 -3 -3 -4 -4 -4 -4 -4 -4 -4 -4 -3 -4 -4 -4
-4 -4 -4 -3 -1 -1 -1 -1 -1 -1 -1 -0 -0 -1 -1 -1 -1 -0 0 -0 -1 -2 -2 -3 -3 -3 -3 -2 -2 -2 -2 -2 -3 -3 -3 -3 -3 -4 -4 -4 -4 -4 -4 -4 -4 -4 -4 -4 -4
-3 -3 -3 -2 -1 -0 -1 -1 -1 -0 -0 -0 -0 -1 -1 -1 -1 -0 -0 -0 -1 -1 -2 -2 -3 -3 -3 -2 -2 -2 -2 -3 -3 -3 -3 -3 -3 -3 -4 -4 -4 -5 -5 -5 -4 -4 -4 -4 -4
-2 -2 -2 -1 -0 -0 -1 -1 -1 -0 -0 -0 -0 -1 -1 -2 -1 -1 -0 -0 -1 -1 -1 -2 -2 -3 -3 -2 -2 -2 -3 -3 -3 -3 -3 -3 -3 -3 -4 -4 -4 -5 -5 -5 -5 -5 -4 -4 -4
-2 -2 -2 -1 0 0 -1 -1 -1 -0 -0 -0 -0 -1 -1 -2 -1 -1 -0 -0 -0 -1 -1 -2 -2 -2 -3 -2 -2 -3 -3 -3 -3 -3 -3 -3 -3 -4 -4 -4 -4 -4 -5 -5 -5 -5 -4 -4 -4
-2 -2 -1 -1 0 0 -1 -1 -0 -0 -0 -0 -0 -1 -1 -2 -2 -1 -0 -0 -0 -1 -1 -2 -2 -3 -3 -2 -3 -3 -3 -3 -3 -3 -3 -3 -3 -3 -4 -4 -4 -4 -4 -4 -5 -5 -5 -5 -4
-1 -1 -1 -1 -1 -1 -0 -0 -0 -0 -0 -0 -1 -1 -1 -2 -2 -1 -0 0 -0 -1 -1 -2 -3 -3 -3 -3 -3 -3 -3 -3 -3 -3 -3 -3 -3 -3 -3 -4 -4 -4 -4 -4 -4 -5 -5 -5 -5
-1 -2 -2 -2 -2 -1 -0 -0 -0 -0 -0 -0 -1 -1 -2 -2 -1 -1 -0 1 0 -1 -1 -2 -2 -3 -3 -3 -3 -3 -3 -3 -3 -4 -4 -4 -3 -3 -3 -4 -4 -4 -4 -4 -4 -5 -5 -5 -5
-2 -2 -2 -2 -2 -1 -0 0 -0 -0 -0 -0 -1 -1 -1 -1 -1 -1 -0 1 0 -0 -1 -2 -2 -3 -3 -3 -3 -3 -3 -3 -4 -4 -4 -4 -3 -4 -4 -4 -4 -4 -4 -4 -4 -4 -5 -4 -4
-2 -2 -2 -2 -2 -1 -0 1 0 -0 -0 -0 -1 -1 -1 -1 -0 -0 0 0 0 -0 -1 -2 -2 -3 -3 -3 -3 -3 -3 -3 -3 -4 -4 -4 -4 -4 -4 -4 -4 -4 -4 -4 -4 -5 -5 -5 -4
-2 -2 -2 -2 -2 -1 -0 0 0 0 0 -0 -0 -0 -0 -0 0 0 0 0 -0 -1 -1 -2 -2 -3 -3 -3 -3 -3 -3 -3 -3 -3 -3 -4 -4 -4 -4 -4 -4 -4 -4 -5 -5 -5 -5 -5 -5
-2 -2 -2 -2 -1 -1 -0 0 0 0 0 0 0 0 -0 -0 -0 -0 -0 -0 -0 -1 -1 -2 -2 -3 -3 -3 -3 -3 -3 -3 -3 -3 -3 -3 -3 -3 -3 -3 -4 -4 -4 -5 -5 -5 -5 -5 -5
-2 -2 -2 -2 -1 -1 -1 -1 -1 -1 -0 -0 -0 -0 -0 -0 -1 -1 -1 -1 -1 -1 -1 -2 -2 -2 -2 -3 -2 -2 -2 -2 -2 -2 -3 -3 -3 -3 -3 -3 -3 -4 -4 -5 -5 -5 -5 -5 -5
-2 -2 -2 -1 -1 -1 -1 -1 -1 -1 -1 -1 -0 -0 -0 -1 -1 -1 -2 -2 -2 -2 -2 -2 -2 -2 -2 -2 -2 -1 -1 -1 -2 -2 -3 -3 -3 -3 -3 -3 -3 -3 -4 -4 -5 -5 -5 -5 -5
-2 -2 -1 -1 -1 -1 -1 -1 -1 -1 -1 -1 -0 -0 0 0 -0 -1 -1 -2 -2 -2 -2 -2 -2 -2 -2 -1 -1 -1 -1 -1 -2 -2 -3 -3 -3 -3 -3 -3 -3 -3 -4 -4 -4 -4 -5 -5 -5
-1 -1 -1 -1 -1 -1 -1 -1 -0 -0 -0 -1 -0 -0 0 1 0 -0 -1 -1 -1 -1 -2 -2 -2 -2 -2 -1 -1 -1 -1 -1 -2 -3 -3 -3 -3 -4 -4 -4 -4 -4 -4 -4 -4 -4 -5 -5 -5
-2 -2 -2 -2 -1 -1 -1 -1 -1 -0 -0 -0 -0 -0 -0 0 1 0 -0 -0 -0 -1 -1 -2 -2 -2 -2 -1 -1 -1 -2 -2 -2 -3 -3 -4 -4 -4 -4 -4 -4 -4 -4 -4 -4 -4 -4 -4 -4
-2 -2 -2 -1 -1 -1 -1 -1 -1 -1 -0 -0 -0 -0 -1 -1 -0 -0 -0 -0 -0 -0 -1 -2 -2 -3 -3 -2 -2 -2 -3 -3 -3 -3 -3 -4 -4 -4 -4 -4 -4 -4 -4 -4 -4 -4 -4 -4 -4
-2 -2 -2 -1 -1 -1 -1 -1 -1 -1 -1 -1 -0 -0 -1 -1 -1 -1 -1 -1 -1 -1 -1 -2 -2 -3 -3 -3 -3 -3 -4 -4 -4 -4 -4 -4 -4 -4 -4 -4 -4 -4 -4 -4 -4 -4 -4 -4 -4
-2 -2 -1 -1 -1 -1 -1 -1 -1 -1 -1 -1 -1 -1 -1 -1 -2 -2 -2 -2 -2 -1 -1 -2 -2 -3 -3 -4 -4 -4 -4 -4 -4 -4 -4 -4 -4 -4 -4 -4 -4 -5 -5 -5 -5 -5 -5 -5 -5
-1 -1 -1 -1 -1 -1 -1 -1 -0 -0 -1 -1 -1 -1 -2 -2 -2 -3 -3 -3 -2 -2 -2 -2 -2 -3 -3 -4 -4 -4 -5 -5 -5 -5 -5 -4 -4 -4 -4 -4 -5 -5 -5 -5 -5 -5 -5 -5 -5
-1 -1 -1 -1 -1 -1 -1 -1 -1 -0 -0 -1 -1 -2 -2 -3 -3 -3 -3 -3 -3 -3 -3 -3 -3 -3 -3 -3 -4 -4 -5 -5 -5 -5 -5 -5 -5 -5 -5 -5 -5 -6 -6 -6 -6 -6 -5 -6 -6
-1 -1 -1 -0 -0 -0 -0 -0 -0 0 0 -0 -1 -1 -1 -2 -3 -3 -3 -3 -4 -4 -4 -4 -3 -3 -3 -3 -4 -4 -4 -5 -5 -5 -4 -4 -4 -4 -5 -5 -6 -6 -6 -5 -5 -6 -6 -6 -6
-1 -1 -0 -0 -0 0 0 0 0 1 1 0 0 -0 -1 -1 -2 -2 -3 -3 -4 -4 -4 -4 -4 -4 -4 -4 -4 -4 -4 -4 -4 -4 -4 -4 -4 -4 -4 -5 -5 -5 -5 -4 -5 -5 -6 -6 -6
-0 -0 0 0 -0 -0 0 0 1 1 1 0 0 -0 -0 -1 -1 -2 -3 -3 -4 -4 -5 -5 -5 -5 -5 -5 -5 -5 -5 -4 -4 -4 -4 -4 -4 -4 -4 -4 -4 -4 -4 -4 -5 -5 -6 -6 -6
-0 0 0 0 -0 -0 -0 0 0 0 0 0 -0 -0 -1 -2 -3 -4 -4 -5 -6 -6 -6 -6 -6 -6 -6 -6 -5 -5 -5 -4 -4 -4 -4 -4 -4 -3 -3 -3 -4 -4 -3 -3 -4 -6 -6 -6 -6
-0 -0 -0 -0 -0 -0 -0 0 0 1 1 0 -0 -1 -2 -3 -4 -5 -5 -6 -6 -6 -6 -6 -6 -6 -6 -6 -5 -5 -4 -4 -4 -3 -3 -3 -3 -3 -3 -3 -3 -2 -2 -3 -4 -5 -6 -6 -6
-0 -0 -0 -0 -0 -0 -0 0 1 1 1 0 -0 -1 -2 -4 -5 -5 -5 -5 -5 -5 -5 -4 -4 -4 -4 -4 -5 -4 -4 -4 -3 -2 -2 -2 -2 -2 -2 -2 -2 -1 -1 -2 -3 -5 -6 -6 -6